Location: Unspecified
(51.0950°N, 12.9690°E)
Time: 10:26:53
(UTC+00:00)

ATLAS 3B R/B - Pass Details

Date: 26 May 2022
Orbit: 976 x 1218 km, 63.8° (Epoch: 20 June)

Event Time Altitude Azimuth Distance (km) Brightness Sun altitude
Rises 20:57:34 0° 316° (NW) 3,936 7.4 -12.4°
Reaches altitude 10° 21:00:12 10° 315° (NW) 3,009 6.4 -12.6°
Maximum altitude 21:07:25 79° 231° (SW) 1,196 2.9 -13.2°
Enters shadow 21:13:22 18° 147° (SSE) 2,589 4.1 -13.6°
